NovaSAR-S

operational
NORAD ID: 43619 Int'l Des: 2018-071 Owner: SSTLA Country: UK
LEOCIRCULARRETROGRADESSO

About NovaSAR-S

Description loading...

Live Position

Loading 3D Globe...

Upcoming Passes

Altitude History

Altitude vs Time

uPlot chart will show altitude changes over time

Two-Line Element Set

1 43619U 18071B 26061.18519792 .00000603 00000-0 58275-4 0 9997
2 43619 97.5236 297.7910 0001946 98.9562 261.1880 14.96283371406933
Epoch: Mar 2, 2026 • Age: 34 hours

Current Status

Altitude 597.0 km
Velocity 7.56 km/s
Sub-Earth Point -45.67°S, 154.94°E
Launch Date Sep 16, 2018
Age 7.4 years
Type other

Technical Details

Classification Payload
Mass 445.00 kg
Dry Mass 400.00 kg
Total Mass 445.00 kg
Length 3.00 m
Diameter 1.00 m
Span 3.00 m
Shape Box tri
Manufacturer SSTLA
Bus Type NovaSAR-S
Phase Status In Orbit
Owner/State SSTLA/UK

Large Constellations

Loading constellations...